Showing default

COSMOS 2491, 39497

Orbit data source: Space-Track

COSMOS 2491, 39497 is a payload satellite owned by TsNIIKhM (CIS) in LEO that was launched on Wed, 25 Dec 2013 UTC via an ROKOT launch vehicle from the Plesetsk Missile And Space Complex (PKMTR). Payload-class satellites include a variety of spacecraft equipped with specific instruments for various scientific and technological missions. These include communications satellites like Starlink; space stations such as the ISS; scientific satellites like the Hubble; Earth observation satellites from companies like Planet Labs, Umbra, and HawkEye 360; GPS; miniature CubeSats for education and research; and military/defense satellites.

Loading next visibility...
Identifier
39497, 2013-076E
Orbit
LEO
Country
Flag of CISCIS
Related business
Manufacturer
TsNIIKhM
Mission
Non-operational Defense Technology
Bus & Motor
NIVELIR, Unknown motor
Mass
~100 kg wet, ~100 kg dry
Launch date (UTC)
2013-12-25 (12 years ago)
Launch vehicle
ROKOT
Launch site
Plesetsk Missile And Space Complex (PKMTR)
Object type
Payload
Rocket body
Debris
Shape & HBR
Hex Box, 0.5 m
Radar Cross Section
0.900 m², Medium (>0.1 m² and < 1m²)

Expand to show TLE details & history
Last TLE update: 5 hours ago

TLE from 5 hours ago
0 COSMOS 2491
1 39497U 13076E   26121.19093352  .00000026  00000-0  11615-3 0  9998
2 39497  82.4884 197.5282 0013238 187.9126 172.1747 12.43496256559418
Epoch: 2026-05-01T04:34Z
TLE epoch observation values (Epoch: 2026-05-01T04:34:56.656Z)
Latitude
-0.00002°
Longitude
-90.33461°
Altitude
1,504.84 km
Speed
7.108 km/s
True Right ascension
13h 10m 06s
True Declination
0° 00' 00"
Sunlit
Object was in full shadow at epoch
Visualization orbit readout
Latitude
Unknown
Longitude
Unknown
Altitude
Unknown
Speed
Unknown
Apparent Right ascension
Unknown
Apparent Declination
Unknown
Sunlit
N/A
Visualization observer readout
Local Sidereal Time
17:12:39
Azimuth
Unknown
Elevation
Unknown
Doppler factor
Unknown
Orbital elements
Apogee altitude
1,499.582 km
Perigee altitude
1,478.753 km
Semi-major axis
7,867.305 km
Eccentricity
0.00132
Inclination
82.4884°
RAAN
197.5282°
Arg. of periapsis
187.9126°
True anomaly
172.19532°
Mean anomaly
172.1747°
Eccentric anomaly
172.18501°
Mean motion
3.11031 °/min
Orbital period
115.74 mins
BSTAR
0.00011615
Loading maneuver chart data...
Computing Atmospheric mass density...
Loading historical data...
Loading historical data...
Loading historical data...
Loading historical data...
Loading historical data...
Loading historical data...
Loading historical data...

Documentation

Showing up to 5 results
|